ECHOSTAR 10 1 28935U 06003A 21062.14052001 -.00000064 00000-0 00000+0 0 9990 2 28935 0.0599 297.0090 0001488 78.7384 85.7436 1.00271519 55141 BLOCK DM-SL R/B 1 28936U 06003B 21061.94077184 -.00000079 00000-0 00000-0 0 9994 2 28936 1.1211 21.1153 6796743 271.1801 290.9778 2.19496643120651